User: anonymous   Login
Location: Diebersbach
(48.5163°N, 8.0558°E)
Time: 10:10:47
(UTC+00:00)
Language:

FALCON 9 DEB - Orbit

View from above orbital plane
View from above orbital plane
View from above satellite
View from above satellite

Ground track
Ground track

The orbit data is extracted from the following two-line orbital elements,

1 46085U 20055BL  21259.15387220  .00019546  00000-0  17906-3 0  9993
2 46085  53.0089 111.8018 0009547 178.3112 181.7937 15.67773043 67875
Epoch (UTC): 16 September 2021 03:41:34
Eccentricity: 0.0009547
inclination: 53.0089°
perigee height: 359 km
apogee height: 372 km
right ascension of ascending node: 111.8018°
argument of perigee: 178.3112°
revolutions per day: 15.67773043
mean anomaly at epoch: 181.7937°
orbit number at epoch: 6787

The dashed part of the orbit path shows where the satellite is in the earth's shadow,  

DLR